Flag for U.S.A. Weather past 2 weeks in Panama City, Florida, U.S.A.

Now
55 °F

Sunny.


Feels Like: 53 °F
Forecast: 56 / 76 °F
Wind: 7 mph from North

Location: Tyndall Air Force Base

Current Time: Oct 25, 2014 at 7:53:31 AM

Latest Report: Oct 25, 2014 at 6:58 AM


Visibility: 10 mi

Pressure: 30.05 "Hg

Humidity: 77%

Dew point: 48 °F

Location of Panama CityLocation

Historic Weather in Panama City — Graph

°F

Panama City temperature yesterday

Maximum temperature yesterday: 74 °F (at 2:58 PM)
Minimum temperature yesterday: 52 °F (at 6:58 AM)
Average temperature yesterday: 62 °F

Past Weeks' High & Low Weather Summary

 TemperatureHumidityPressure
High86 °F (Oct 11, 2:58 PM)100% (Oct 10, 6:58 AM)30.12 "Hg (Oct 10, 6:58 AM)
Low51 °F (Oct 25, 4:58 AM)32% (Oct 23, 3:58 PM)29.85 "Hg (Oct 14, 6:55 AM)
Average69 °F78%30.01 "Hg
* Reported Oct 10 6:58 AM — Oct 25 6:58 AM, Panama City, Weather by CustomWeather, © 2014

Note: Actual official high and low records may vary slightly from our data, if they occured in-between our weather recording intervals... More about our weather records

Advertising

Panama City weather history for previous 24 hours

 ConditionsComfort  
Time TempWeatherWind HumidityBarometerVisibility
6:58 AM
Oct 25
55 °FSunny.7 mph77%30.05 "Hg10 mi
5:58 AM55 °FClear.6 mph77%30.05 "Hg10 mi
4:58 AM51 °FClear.2 mph88%30.03 "Hg10 mi
3:58 AM53 °FClear.3 mph85%30.03 "Hg10 mi
2:58 AM57 °FClear.8 mph74%30.03 "Hg10 mi
1:58 AM54 °FClear.2 mph86%30.03 "Hg10 mi
12:58 AM53 °FClear.1 mph88%30.04 "Hg10 mi
11:58 PM
Oct 24
54 °FClear.No wind85%30.04 "Hg10 mi
10:58 PM55 °FClear.No wind86%30.04 "Hg10 mi
9:58 PM56 °FClear.No wind85%30.05 "Hg10 mi
8:58 PM58 °FClear.No wind82%30.04 "Hg10 mi
7:58 PM59 °FClear.No wind79%30.02 "Hg10 mi
6:58 PM62 °FClear.7 mph75%30.01 "Hg10 mi
5:58 PM68 °FSunny.6 mph60%30.01 "Hg10 mi
4:58 PM72 °FSunny.10 mph49%29.99 "Hg10 mi
3:58 PM73 °FSunny.12 mph46%29.99 "Hg10 mi
2:58 PM74 °FSunny.9 mph45%29.99 "Hg10 mi
1:58 PM73 °FSunny.6 mph46%30.00 "Hg10 mi
12:58 PM74 °FPassing clouds.3 mph41%30.03 "Hg10 mi
11:58 AM73 °FSunny.No wind42%30.06 "Hg10 mi
10:58 AM72 °FSunny.2 mph46%30.08 "Hg10 mi
9:58 AM67 °FSunny.3 mph55%30.09 "Hg10 mi
8:58 AM63 °FSunny.5 mph64%30.09 "Hg10 mi
7:58 AM57 °FSunny.2 mph83%30.08 "Hg10 mi
Weather by CustomWeather, © 2014

See weather overviewHow to use our weather pages